Weather History for K40B - December, 2012

Change the Weather History Date:

Thursday, December 6, 2012

  Actual Average Record
Temperature  
Mean Temperature 20 °F -  
Max Temperature 28 °F 28 °F 57 °F (2001)
Min Temperature 12 °F 10 °F -13 °F (2003)
Degree Days  
Heating Degree Days 46    
Moisture  
Dew Point 11 °F    
Average Humidity 70    
Maximum Humidity 92    
Minimum Humidity 47    
Precipitation  
Precipitation 0.01 in - - ()
Sea Level Pressure  
Sea Level Pressure 30.25 in    
Wind  
Wind Speed 4 mph (North)    
Max Wind Speed 7 mph    
Max Gust Speed 18 mph    
Averages and records for this station are not official NWS values.
T = Trace of Precipitation, MM = Missing Value Source: NWS Daily Summary

Daily Weather History Graph

Daily Weather History Graph

Search for Another Location

Airport or City:

Trip Planner

Search our weather history database for the weather conditions in past years. The results will help you decide how hot, cold, wet, or windy it might be!

Date:

Astronomy

Dec. 06, 2012 Rise Set
Actual Time 7:07 AM EST 3:50 PM EST
Civil Twilight 6:33 AM EST 4:25 PM EST
Nautical Twilight 5:55 AM EST 5:03 PM EST
Astronomical Twilight 5:18 AM EST 5:40 PM EST
Moon No Moon Rise 11:38 AM EST (12/6)
Length of Visible Light 9h 52m
Length of Day
8h 42m
Waning Gibbous, 49% of the Moon is Illuminated
Dec 6
Waning Gibbous
Dec 13
New
Dec 20
First Quarter
Dec 28
Full
Jan 4
Last Quarter

Hourly Weather History & Observations

Time (EST) Temp. Windchill Dew Point Humidity Pressure Visibility Wind Dir Wind Speed Gust Speed Precip Events Conditions
12:25 AM 24.1 °F 18.2 °F 13.5 °F 64% 30.04 in - Variable 4.6 mph 13.8 mph N/A   Unknown
1:26 AM 23.0 °F 17.0 °F 13.6 °F 67% 30.06 in - Variable 4.6 mph - 0.00 in   Unknown
2:25 AM 22.1 °F 13.7 °F 14.7 °F 73% 30.11 in - Variable 6.9 mph 18.4 mph N/A   Unknown
3:25 AM 21.2 °F 14.9 °F 12.6 °F 69% 30.14 in - Variable 4.6 mph 16.1 mph N/A   Unknown
4:25 AM 19.0 °F 11.1 °F 10.0 °F 68% 30.17 in - Variable 5.8 mph 15.0 mph N/A   Unknown
5:25 AM 17.6 °F 9.3 °F 9.9 °F 72% 30.21 in - Variable 5.8 mph 13.8 mph N/A   Unknown
6:25 AM 17.1 °F 10.0 °F 9.7 °F 73% 30.25 in - Variable 4.6 mph 11.5 mph N/A   Unknown
7:25 AM 16.7 °F 9.6 °F 9.5 °F 73% 30.27 in - Variable 4.6 mph - N/A   Unknown
8:25 AM 17.2 °F - 9.7 °F 72% 30.30 in - Variable 2.3 mph 11.5 mph N/A   Unknown
9:25 AM 19.4 °F 14.3 °F 9.1 °F 64% 30.31 in - Variable 3.5 mph 11.5 mph N/A   Unknown
10:25 AM 22.8 °F 16.7 °F 9.5 °F 57% 30.30 in - Variable 4.6 mph - N/A   Unknown
11:25 AM 23.9 °F 16.8 °F 9.7 °F 55% 30.29 in - Variable 5.8 mph 15.0 mph N/A   Unknown
12:27 PM 25.7 °F 20.1 °F 10.0 °F 52% 30.29 in - Variable 4.6 mph 13.8 mph N/A   Unknown
1:25 PM 27.1 °F 21.8 °F 10.4 °F 49% 30.29 in - Variable 4.6 mph 13.8 mph N/A   Unknown
2:25 PM 27.5 °F - 9.7 °F 47% 30.29 in - Variable 2.3 mph - N/A   Unknown
3:25 PM 25.7 °F - 9.3 °F 50% 30.30 in - Calm Calm - N/A   Unknown
4:25 PM 21.7 °F - 11.5 °F 65% 30.30 in - Calm Calm - N/A   Unknown
5:25 PM 19.8 °F - 11.1 °F 69% 30.31 in - Calm Calm - 0.00 in   Unknown
6:28 PM 16.5 °F - 12.2 °F 83% 30.29 in - Calm Calm - 0.01 in   Unknown
7:25 PM 14.7 °F - 11.1 °F 86% 30.29 in - Calm Calm - N/A   Unknown
8:25 PM 13.6 °F - 11.1 °F 90% 30.30 in - Calm Calm - 0.00 in   Unknown
9:25 PM 12.6 °F - 10.2 °F 90% 30.30 in - Calm Calm - N/A   Unknown
10:25 PM 12.7 °F - 10.8 °F 92% 30.31 in - Calm Calm - N/A   Unknown
11:27 PM 12.6 °F - 10.4 °F 91% 30.30 in - Calm Calm - N/A   Unknown